CW5363 Weather Reports


Display with metric or nautical units.
time (UTC)temp
F
wind
direction
speed
MPH
gust
MPH
rain 1hr
in
rain 24hr
in
rain mn
in
humidity
%
barometer
mb
20210619152323 82 157 2.0 6.0 0.00 0.00 0.00 55 1019.2
20210619151818 82 322 2.0 7.0 0.00 0.00 0.00 58 1019.0
20210619151350 82 289 3.0 7.0 0.00 0.00 0.00 56 1019.0
20210619150825 82 106 1.0 4.0 0.00 0.00 0.00 60 1019.0
20210619150316 82 267 2.0 4.0 0.00 0.00 0.00 58 1019.2
20210619145836 82 94 1.0 4.0 0.00 0.00 0.00 61 1019.2
20210619145327 81 294 1.0 2.0 0.00 0.00 0.00 61 1019.2
20210619144821 80 94 1.0 2.0 0.00 0.00 0.00 67 1019.2
20210619144333 80 94 2.0 2.0 0.00 0.00 0.00 71 1019.2
20210619143829 79 84 1.0 2.0 0.00 0.00 0.00 71 1019.2
20210619143320 78 90 0.0 2.0 0.00 0.00 0.00 74 1019.7
20210619142831 77 90 1.0 2.0 0.00 0.00 0.00 75 1019.7
20210619142325 76 90 1.0 2.0 0.00 0.00 0.00 75 1019.7
20210619141820 75 90 1.0 2.0 0.00 0.00 0.00 77 1019.8
20210619141331 75 89 0.0 2.0 0.00 0.00 0.00 77 1019.8
20210619140828 74 90 1.0 2.0 0.00 0.00 0.00 78 1019.8
20210619140319 74 90 1.0 2.0 0.00 0.00 0.00 78 1019.8
20210619135834 74 90 1.0 2.0 0.00 0.00 0.00 79 1019.8
20210619135326 73 90 1.0 2.0 0.00 0.00 0.00 79 1019.8
20210619134818 73 90 0.0 2.0 0.00 0.00 0.00 80 1019.9
20210619134330 72 90 1.0 3.0 0.00 0.00 0.00 80 1019.9
20210619133825 72 90 0.0 3.0 0.00 0.00 0.00 80 1019.9
20210619133319 72 351 1.0 2.0 0.00 0.00 0.00 79 1019.8
20210619132830 71 351 1.0 2.0 0.00 0.00 0.00 80 1019.8
20210619132321 70 351 0.0 2.0 0.00 0.00 0.00 81 1019.8
20210619131831 70 351 1.0 1.0 0.00 0.00 0.00 82 1019.7
20210619131325 69 351 0.0 2.0 0.00 0.00 0.00 83 1019.7
20210619130819 68 351 1.0 2.0 0.00 0.00 0.00 84 1019.7
20210619130331 67 351 0.0 2.0 0.00 0.00 0.00 86 1019.5
20210619125826 67 351 0.0 1.0 0.00 0.00 0.00 87 1019.5
20210619125321 67 351 0.0 2.0 0.00 0.00 0.00 88 1019.5
20210619124831 66 351 0.0 2.0 0.00 0.00 0.00 89 1019.2
20210619124321 66 335 0.0 0.0 0.00 0.00 0.00 90 1019.2
20210619123833 65 335 0.0 0.0 0.00 0.00 0.00 90 1019.2
20210619123326 65 335 0.0 0.0 0.00 0.00 0.00 90 1019.3
20210619122818 64 335 0.0 0.0 0.00 0.00 0.00 91 1019.3
20210619122330 64 335 0.0 0.0 0.00 0.00 0.00 91 1019.3
20210619121825 64 335 0.0 0.0 0.00 0.00 0.00 91 1019.2
20210619121320 64 334 0.0 0.0 0.00 0.00 0.00 91 1019.2
20210619120832 63 335 0.0 0.0 0.00 0.00 0.00 92 1019.2
20210619120324 63 335 0.0 0.0 0.00 0.00 0.00 92 1019.2
20210619115835 63 335 0.0 0.0 0.00 0.00 0.00 92 1019.2
20210619115326 62 335 0.0 0.0 0.00 0.00 0.00 91 1019.2
20210619114820 62 335 0.0 0.0 0.00 0.00 0.00 91 1019.2
20210619114331 62 335 0.0 0.0 0.00 0.00 0.00 91 1019.2
20210619113826 62 335 0.0 0.0 0.00 0.00 0.00 91 1019.2
20210619113319 62 335 0.0 0.0 0.00 0.00 0.00 91 1019.2
20210619112814 62 335 0.0 0.0 0.00 0.00 0.00 91 1019.2
20210619112330 62 335 0.0 0.0 0.00 0.00 0.00 91 1019.2
20210619111820 62 335 0.0 0.0 0.00 0.00 0.00 92 1019.2
20210619111332 62 335 0.0 0.0 0.00 0.00 0.00 92 1019.2
20210619110825 62 335 0.0 0.0 0.00 0.00 0.00 91 1019.2
20210619110320 62 335 0.0 0.0 0.00 0.00 0.00 91 1019.4
20210619105815 61 335 0.0 0.0 0.00 0.00 0.00 91 1019.4
20210619105331 62 335 0.0 0.0 0.00 0.00 0.00 91 1019.4
20210619104824 62 335 0.0 0.0 0.00 0.00 0.00 91 1019.4
20210619104317 62 335 0.0 0.0 0.00 0.00 0.00 91 1019.4
20210619103830 62 335 0.0 0.0 0.00 0.00 0.00 91 1019.4
20210619103321 62 335 0.0 0.0 0.00 0.00 0.00 91 1019.3
20210619102832 62 335 0.0 0.0 0.00 0.00 0.00 91 1019.3
20210619102328 62 335 0.0 0.0 0.00 0.00 0.00 90 1019.3
20210619101818 62 335 0.0 0.0 0.00 0.00 0.00 90 1019.2
20210619101330 62 335 0.0 0.0 0.00 0.00 0.00 90 1019.2
20210619100822 62 335 0.0 0.0 0.00 0.00 0.00 90 1019.2
20210619100333 62 335 0.0 0.0 0.00 0.00 0.00 90 1018.8
20210619095824 62 335 0.0 0.0 0.00 0.00 0.00 90 1018.8
20210619095315 62 335 0.0 0.0 0.00 0.00 0.00 90 1018.8
20210619094828 62 335 0.0 0.0 0.00 0.00 0.00 90 1018.6
20210619094326 63 335 0.0 0.0 0.00 0.00 0.00 90 1018.6
20210619093819 63 335 0.0 0.0 0.00 0.00 0.00 89 1018.6
20210619093331 63 335 0.0 0.0 0.00 0.00 0.00 89 1018.6
20210619092821 63 335 0.0 0.0 0.00 0.00 0.00 89 1018.6
20210619092336 63 335 0.0 0.0 0.00 0.00 0.00 89 1018.6
20210619091827 63 355 0.0 0.0 0.00 0.00 0.00 89 1018.7
20210619091318 63 355 0.0 0.0 0.00 0.00 0.00 89 1018.7
20210619090830 63 355 0.0 0.0 0.00 0.00 0.00 89 1018.7
20210619090328 63 355 0.0 0.0 0.00 0.00 0.00 88 1018.9
20210619085819 63 355 0.0 0.0 0.00 0.00 0.00 88 1018.9
20210619085334 63 355 0.0 2.0 0.00 0.00 0.00 88 1018.9
20210619084826 64 355 1.0 2.0 0.00 0.00 0.00 88 1018.9
20210619084317 64 355 0.0 1.0 0.00 0.00 0.00 88 1018.9
20210619083830 64 355 0.0 0.0 0.00 0.00 0.00 87 1018.9
20210619083320 64 355 0.0 0.0 0.00 0.00 0.00 87 1019.0
20210619082831 64 355 0.0 0.0 0.00 0.00 0.00 87 1019.0
20210619081818 64 355 0.0 1.0 0.00 0.00 0.00 87 1019.2
20210619081332 64 355 1.0 1.0 0.00 0.00 0.00 87 1019.2
20210619080824 64 355 1.0 1.0 0.00 0.00 0.00 87 1019.2
20210619080319 64 355 1.0 2.0 0.00 0.00 0.00 87 1019.2
20210619075830 64 355 1.0 2.0 0.00 0.00 0.00 86 1019.2
20210619075323 65 355 1.0 2.0 0.00 0.00 0.00 86 1019.2
20210619074834 65 355 1.0 2.0 0.00 0.00 0.00 86 1019.2
20210619074329 65 355 1.0 1.0 0.00 0.00 0.00 86 1019.2
20210619073822 65 355 0.0 1.0 0.00 0.00 0.00 86 1019.2
20210619073332 65 355 1.0 2.0 0.00 0.00 0.00 85 1019.3
20210619072825 65 355 1.0 2.0 0.00 0.00 0.00 85 1019.3
20210619072337 65 355 0.0 1.0 0.00 0.00 0.00 85 1019.3
20210619071827 65 355 0.0 2.0 0.00 0.00 0.00 85 1019.2
20210619071318 66 355 0.0 2.0 0.00 0.00 0.00 85 1019.2
20210619070829 66 355 1.0 1.0 0.00 0.00 0.00 85 1019.2
20210619070324 66 355 0.0 1.0 0.00 0.00 0.00 84 1019.2
20210619065818 66 355 1.0 2.0 0.00 0.00 0.00 84 1019.2
20210619065331 66 355 1.0 2.0 0.00 0.00 0.00 84 1019.2
20210619064822 66 355 0.0 2.0 0.00 0.00 0.00 84 1019.2
20210619064337 67 355 1.0 2.0 0.00 0.00 0.00 83 1019.2
20210619063829 67 355 0.0 0.0 0.00 0.00 0.00 83 1019.2
20210619063320 67 355 0.0 1.0 0.00 0.00 0.00 83 1019.3
20210619062830 67 355 0.0 1.0 0.00 0.00 0.00 83 1019.3
20210619062325 67 355 0.0 1.0 0.00 0.00 0.00 83 1019.3
20210619061815 67 355 1.0 2.0 0.00 0.00 0.00 82 1019.4
20210619061330 67 355 1.0 1.0 0.00 0.00 0.00 82 1019.4
20210619060820 67 355 0.0 2.0 0.00 0.00 0.00 82 1019.4
20210619060334 67 355 0.0 2.0 0.00 0.00 0.00 82 1019.5
20210619055824 67 355 0.0 1.0 0.00 0.00 0.00 82 1019.5
20210619055336 67 355 1.0 1.0 0.00 0.00 0.00 81 1019.5
20210619054827 68 355 1.0 1.0 0.00 0.00 0.00 81 1019.4
20210619054322 68 355 0.0 1.0 0.00 0.00 0.00 81 1019.4
20210619053834 68 355 0.0 1.0 0.00 0.00 0.00 80 1019.4
20210619053326 68 355 1.0 1.0 0.00 0.00 0.00 80 1019.2
20210619052837 68 355 0.0 2.0 0.00 0.00 0.00 79 1019.2
20210619052328 68 355 1.0 2.0 0.00 0.00 0.00 79 1019.2
20210619051819 68 355 0.0 2.0 0.00 0.00 0.00 79 1019.3
20210619051330 68 355 0.0 2.0 0.00 0.00 0.00 79 1019.3
20210619050824 68 5 1.0 2.0 0.00 0.00 0.00 79 1019.3
20210619050319 68 5 1.0 1.0 0.00 0.00 0.00 79 1019.4
20210619045830 68 5 0.0 2.0 0.00 0.00 0.00 79 1019.4
20210619045326 69 5 1.0 2.0 0.00 0.00 0.00 78 1019.4
20210619044817 69 5 0.0 1.0 0.00 0.00 0.00 77 1019.2
20210619044329 69 5 0.0 1.0 0.00 0.00 0.00 77 1019.2
20210619043821 69 5 0.0 2.0 0.00 0.00 0.00 77 1019.2
20210619043337 70 5 0.0 1.0 0.00 0.00 0.00 76 1019.2
20210619042828 70 5 0.0 2.0 0.00 0.00 0.00 76 1019.2
20210619042324 70 5 0.0 2.0 0.00 0.00 0.00 75 1019.2
20210619041838 70 5 0.0 2.0 0.00 0.00 0.00 75 1019.4
20210619041329 70 5 0.0 2.0 0.00 0.00 0.00 74 1019.4
20210619040821 70 5 0.0 2.0 0.00 0.00 0.00 74 1019.4
20210619040333 70 5 0.0 2.0 0.00 0.00 0.00 74 1019.6
20210619035823 70 321 0.0 3.0 0.00 0.00 0.00 74 1019.6
20210619035336 70 321 1.0 3.0 0.00 0.00 0.00 74 1019.6
20210619034828 70 321 0.0 0.0 0.00 0.00 0.00 74 1019.3
20210619034326 70 321 0.0 0.0 0.00 0.00 0.00 73 1019.3
20210619033818 70 321 0.0 0.0 0.00 0.00 0.00 72 1019.3
20210619033329 70 321 0.0 0.0 0.00 0.00 0.00 72 1019.3
20210619032821 70 321 0.0 0.0 0.00 0.00 0.00 71 1019.3
20210619032332 71 321 0.0 0.0 0.00 0.00 0.00 71 1019.3
20210619031824 71 321 0.0 1.0 0.00 0.00 0.00 71 1019.2
20210619031315 71 321 0.0 3.0 0.00 0.00 0.00 71 1019.2
20210619030829 71 321 0.0 3.0 0.00 0.00 0.00 71 1019.2
20210619030324 71 343 0.0 1.0 0.00 0.00 0.00 73 1019.2
20210619025835 71 343 0.0 2.0 0.00 0.00 0.00 73 1019.2
20210619025326 70 343 1.0 2.0 0.00 0.00 0.00 73 1019.2
20210619024837 70 343 0.0 1.0 0.00 0.00 0.00 74 1019.2
20210619024330 70 343 0.0 1.0 0.00 0.00 0.00 73 1019.2
20210619023820 70 343 0.0 1.0 0.00 0.00 0.00 74 1019.2
20210619023334 70 343 0.0 0.0 0.00 0.00 0.00 74 1019.2
20210619022826 70 343 0.0 0.0 0.00 0.00 0.00 74 1019.2
20210619022322 70 343 0.0 2.0 0.00 0.00 0.00 75 1019.2
20210619021833 70 343 0.0 2.0 0.00 0.00 0.00 74 1019.2
20210619021324 70 343 1.0 2.0 0.00 0.00 0.00 74 1019.2
20210619020836 70 343 0.0 1.0 0.00 0.00 0.00 73 1019.2
20210619020328 71 342 0.0 1.0 0.00 0.00 0.00 74 1019.5
20210619015821 71 342 0.0 1.0 0.00 0.00 0.00 75 1019.5
20210619015334 71 342 0.0 1.0 0.00 0.00 0.00 75 1019.5
20210619014825 71 342 0.0 2.0 0.00 0.00 0.00 73 1019.4
20210619014320 72 342 1.0 2.0 0.00 0.00 0.00 73 1019.4
20210619013815 72 342 1.0 2.0 0.00 0.00 0.00 73 1019.4
20210619013328 72 342 0.0 1.0 0.00 0.00 0.00 72 1019.6
20210619012820 72 342 0.0 1.0 0.00 0.00 0.00 72 1019.6
20210619012331 73 342 0.0 1.0 0.00 0.00 0.00 71 1019.6
20210619011825 73 342 0.0 0.0 0.00 0.00 0.00 71 1019.8
20210619011336 73 342 0.0 0.0 0.00 0.00 0.00 70 1019.8
20210619010829 73 342 0.0 0.0 0.00 0.00 0.00 71 1019.8
20210619010324 73 342 0.0 1.0 0.00 0.00 0.00 70 1020.1
20210619005818 73 342 0.0 1.0 0.00 0.00 0.00 71 1020.1
20210619005330 74 342 0.0 1.0 0.00 0.00 0.00 70 1020.1
20210619004823 74 342 0.0 1.0 0.00 0.00 0.00 70 1019.7
20210619004336 75 342 0.0 1.0 0.00 0.00 0.00 69 1019.7
20210619003827 75 342 0.0 1.0 0.00 0.00 0.00 68 1019.7
20210619003322 75 342 0.0 1.0 0.00 0.00 0.00 68 1019.7
20210619002833 75 342 0.0 2.0 0.00 0.00 0.00 67 1019.7
20210619002327 75 342 1.0 2.0 0.00 0.00 0.00 67 1019.7
20210619001819 76 5 1.0 2.0 0.00 0.00 0.00 68 1019.4
20210619001333 76 345 0.0 4.0 0.00 0.00 0.00 67 1019.4
20210619000826 76 335 1.0 3.0 0.00 0.00 0.00 66 1019.4
20210619000316 76 70 0.0 3.0 0.00 0.00 0.00 66 1019.2
20210618235830 76 94 1.0 3.0 0.00 0.00 0.00 66 1019.2
20210618235323 76 308 1.0 3.0 0.00 0.00 0.00 65 1019.2
20210618234834 76 338 0.0 2.0 0.00 0.00 0.00 65 1019.2
20210618234329 77 329 0.0 3.0 0.00 0.00 0.00 65 1019.2
20210618233822 77 329 0.0 3.0 0.00 0.00 0.00 66 1019.2
20210618233332 77 344 0.0 3.0 0.00 0.00 0.00 65 1019.1
20210618232823 77 344 0.0 3.0 0.00 0.00 0.00 65 1019.1
20210618232335 77 95 1.0 2.0 0.00 0.00 0.00 64 1019.1
20210618231826 77 102 1.0 3.0 0.00 0.00 0.00 64 1019.1
20210618231318 77 102 1.0 5.0 0.00 0.00 0.00 65 1019.1
20210618230831 77 106 1.0 3.0 0.00 0.00 0.00 65 1019.1
20210618230326 77 56 0.0 2.0 0.00 0.00 0.00 64 1018.8
20210618225820 77 56 1.0 3.0 0.00 0.00 0.00 64 1018.8
20210618225333 77 148 1.0 3.0 0.00 0.00 0.00 64 1018.8
20210618224825 78 28 1.0 3.0 0.00 0.00 0.00 64 1018.6
20210618224337 78 216 1.0 4.0 0.00 0.00 0.00 63 1018.6
20210618223828 78 168 1.0 4.0 0.00 0.00 0.00 63 1018.6
20210618223321 78 107 1.0 3.0 0.00 0.00 0.00 64 1018.6
20210618222832 78 142 1.0 4.0 0.00 0.00 0.00 63 1018.6
20210618222330 78 341 2.0 4.0 0.00 0.00 0.00 62 1018.6
20210618221820 78 157 1.0 4.0 0.00 0.00 0.00 63 1018.8
20210618221333 79 134 2.0 4.0 0.00 0.00 0.00 63 1018.8
20210618220828 78 78 1.0 4.0 0.00 0.00 0.00 63 1018.8
20210618220318 79 167 1.0 5.0 0.00 0.00 0.00 64 1019.0
20210618215830 79 85 2.0 5.0 0.00 0.00 0.00 63 1019.0
20210618215322 79 117 1.0 3.0 0.00 0.00 0.00 64 1019.0
20210618214833 79 186 1.0 3.0 0.00 0.00 0.00 64 1019.3
20210618214329 79 166 2.0 3.0 0.00 0.00 0.00 62 1019.3
20210618213822 79 147 0.0 3.0 0.00 0.00 0.00 62 1019.3
20210618213333 79 140 1.0 3.0 0.00 0.00 0.00 62 1019.6
20210618212824 79 140 0.0 3.0 0.00 0.00 0.00 61 1019.6
20210618212335 80 140 0.0 2.0 0.00 0.00 0.00 60 1019.6
20210618211826 80 140 1.0 3.0 0.00 0.00 0.00 60 1019.7
20210618211318 80 150 1.0 3.0 0.00 0.00 0.00 59 1019.7
20210618210830 80 126 0.0 2.0 0.00 0.00 0.00 59 1019.7
20210618210324 81 126 0.0 2.0 0.00 0.00 0.00 58 1019.6
20210618205816 81 127 1.0 4.0 0.00 0.00 0.00 57 1019.6
20210618205330 81 127 1.0 4.0 0.00 0.00 0.00 56 1019.6
20210618204821 81 101 1.0 4.0 0.00 0.00 0.00 55 1019.7
20210618204332 82 128 2.0 4.0 0.00 0.00 0.00 57 1019.7
20210618203823 82 172 2.0 3.0 0.00 0.00 0.00 56 1019.7
20210618203335 82 132 1.0 4.0 0.00 0.00 0.00 57 1019.8
20210618202826 82 134 3.0 4.0 0.00 0.00 0.00 55 1019.8
20210618202324 82 155 1.0 3.0 0.00 0.00 0.00 56 1019.8
20210618201834 82 124 0.0 4.0 0.00 0.00 0.00 56 1020.0
20210618201325 81 124 2.0 4.0 0.00 0.00 0.00 54 1020.0
20210618200836 82 113 2.0 4.0 0.00 0.00 0.00 56 1020.0
20210618200326 82 140 2.0 4.0 0.00 0.00 0.00 55 1020.3
20210618195817 82 70 2.0 5.0 0.00 0.00 0.00 54 1020.3
20210618195333 83 127 2.0 5.0 0.00 0.00 0.00 55 1020.3
20210618194824 83 189 2.0 4.0 0.00 0.00 0.00 55 1020.3
20210618194319 83 127 2.0 5.0 0.00 0.00 0.00 55 1020.3
20210618193830 83 76 2.0 5.0 0.00 0.00 0.00 53 1020.3
20210618193321 83 127 1.0 5.0 0.00 0.00 0.00 55 1020.3
20210618192835 83 107 2.0 5.0 0.00 0.00 0.00 54 1020.3
20210618192328 83 160 1.0 5.0 0.00 0.00 0.00 55 1020.3
20210618191819 83 146 2.0 5.0 0.00 0.00 0.00 54 1020.4
20210618191334 83 232 1.0 5.0 0.00 0.00 0.00 53 1020.4
20210618190825 83 83 0.0 4.0 0.00 0.00 0.00 56 1020.4
20210618190336 82 111 2.0 4.0 0.00 0.00 0.00 55 1020.3
20210618185826 82 155 2.0 4.0 0.00 0.00 0.00 56 1020.3
20210618185317 81 140 2.0 4.0 0.00 0.00 0.00 57 1020.3
20210618184832 81 153 1.0 5.0 0.00 0.00 0.00 57 1020.5
20210618184323 81 108 2.0 4.0 0.00 0.00 0.00 57 1020.5
20210618183818 81 183 2.0 5.0 0.00 0.00 0.00 55 1020.5
20210618183328 81 102 2.0 7.0 0.00 0.00 0.00 56 1020.7
20210618182820 81 143 3.0 7.0 0.00 0.00 0.00 56 1020.7
20210618182331 81 181 2.0 5.0 0.00 0.00 0.00 55 1020.7
20210618181826 81 166 1.0 5.0 0.00 0.00 0.00 57 1020.8
20210618181321 81 125 2.0 5.0 0.00 0.00 0.00 56 1020.8
20210618180837 81 140 3.0 7.0 0.00 0.00 0.00 55 1020.8
20210618180328 81 184 2.0 7.0 0.00 0.00 0.00 55 1020.5
20210618175819 81 132 2.0 4.0 0.00 0.00 0.00 56 1020.5
20210618175330 81 136 2.0 4.0 0.00 0.00 0.00 56 1020.5
20210618174820 81 117 2.0 6.0 0.00 0.00 0.00 55 1020.9
20210618174317 80 118 3.0 6.0 0.00 0.00 0.00 56 1020.9
20210618173832 80 129 3.0 7.0 0.00 0.00 0.00 57 1020.9
20210618173323 79 259 2.0 8.0 0.00 0.00 0.00 56 1020.9
20210618172817 79 131 2.0 9.0 0.00 0.00 0.00 57 1020.9
20210618172328 80 207 4.0 9.0 0.00 0.00 0.00 55 1020.9
20210618171820 80 111 3.0 8.0 0.00 0.00 0.00 55 1020.9
20210618171331 80 42 2.0 7.0 0.00 0.00 0.00 56 1020.9
20210618170823 79 153 2.0 6.0 0.00 0.00 0.00 55 1020.9
20210618170318 79 36 3.0 6.0 0.00 0.00 0.00 56 1020.9
20210618165829 79 152 2.0 8.0 0.00 0.00 0.00 57 1020.9
20210618165320 80 161 2.0 6.0 0.00 0.00 0.00 56 1020.9
20210618164831 80 199 3.0 5.0 0.00 0.00 0.00 58 1020.9
20210618164322 80 129 2.0 6.0 0.00 0.00 0.00 55 1020.9
20210618163837 80 122 4.0 6.0 0.00 0.00 0.00 55 1020.9
20210618163327 79 107 1.0 7.0 0.00 0.00 0.00 56 1020.9
20210618162821 79 133 3.0 7.0 0.00 0.00 0.00 55 1020.9
20210618162332 79 126 2.0 7.0 0.00 0.00 0.00 55 1020.9
20210618161827 79 146 2.0 5.0 0.00 0.00 0.00 56 1020.8
20210618161318 79 93 1.0 7.0 0.00 0.00 0.00 56 1020.8
20210618160833 79 360 2.0 6.0 0.00 0.00 0.00 56 1020.8
20210618160323 79 144 3.0 6.0 0.00 0.00 0.00 56 1020.9
20210618155818 79 136 2.0 5.0 0.00 0.00 0.00 56 1020.9
20210618155330 79 158 2.0 5.0 0.00 0.00 0.00 57 1020.9
20210618154821 79 150 2.0 4.0 0.00 0.00 0.00 57 1021.0
20210618154317 78 151 1.0 5.0 0.00 0.00 0.00 59 1021.0
20210618153834 78 162 2.0 5.0 0.00 0.00 0.00 58 1021.0
20210618153325 77 138 2.0 5.0 0.00 0.00 0.00 59 1020.9
20210618152836 77 109 2.0 4.0 0.00 0.00 0.00 59 1020.9